Weather History for Auburn, IN

Change the Weather History Date:

Monday, April 15, 2013

  Actual Average (KFWA) Record (KFWA)
Temperature  
Mean Temperature 52 °F 50 °F  
Max Temperature 66 °F 61 °F 85 °F (2002)
Min Temperature 37 °F 39 °F 20 °F (1907)
Degree Days  
Heating Degree Days 14 15  
Month to date heating degree days 269  
Since 1 July heating degree days 5693  
Cooling Degree Days 0 0  
Month to date cooling degree days 0  
Year to date cooling degree days 0  
Growing Degree Days 2 (Base 50)    
Moisture  
Dew Point 46 °F    
Average Humidity 71    
Maximum Humidity 93    
Minimum Humidity 59    
Precipitation  
Precipitation 0.00 in 0.12 in 1.13 in (1999)
Month to date precipitation 1.80  
Year to date precipitation 8.81  
Snow  
Snow 0.00 in 0.00 in 0.60 in (1980)
Month to date snowfall 0.7  
Since 1 July snowfall 33.2  
Snow Depth -    
Sea Level Pressure  
Sea Level Pressure 29.91 in    
Wind  
Wind Speed 6 mph (South)    
Max Wind Speed 17 mph    
Max Gust Speed 25 mph    
Visibility 9 miles    
Events      
T = Trace of Precipitation, MM = Missing Value Source: NWS Daily Summary

Daily Weather History Graph

Daily Weather History Graph

Search for Another Location

Airport:

Trip Planner

Search our weather history database for the weather conditions in past years. The results will help you decide how hot, cold, wet, or windy it might be!

Date:

Astronomy

Apr. 15, 2013 Rise Set
Actual Time 7:00 AM EDT 8:20 PM EDT
Civil Twilight 6:31 AM EDT 8:49 PM EDT
Nautical Twilight 5:57 AM EDT 9:24 PM EDT
Astronomical Twilight 5:21 AM EDT 10:00 PM EDT
Moon 10:23 AM EDT (4/15) 12:34 AM EDT (4/15)
Length of Visible Light 14h 17m
Length of Day
13h 20m
Waxing Crescent, 24% of the Moon is Illuminated
Apr 15
Waxing Crescent
Apr 18
First Quarter
Apr 25
Full
May 2
Last Quarter
May 9
New

Hourly Weather History & Observations

Time (EDT) Temp. Windchill Dew Point Humidity Pressure Visibility Wind Dir Wind Speed Gust Speed Precip Events Conditions
12:15 AM 44.6 °F 40.2 °F 37.4 °F 76% 29.87 in 10.0 mi East 8.1 mph - N/A   Clear
12:35 AM 44.6 °F 41.4 °F 37.4 °F 76% 29.87 in 10.0 mi East 5.8 mph - N/A   Clear
12:55 AM 44.6 °F 40.7 °F 37.4 °F 76% 29.86 in 10.0 mi East 6.9 mph - N/A   Clear
1:15 AM 44.6 °F 40.7 °F 37.4 °F 76% 29.86 in 10.0 mi East 6.9 mph - N/A   Clear
1:35 AM 44.6 °F 42.2 °F 37.4 °F 76% 29.86 in 10.0 mi ESE 4.6 mph - N/A   Clear
1:55 AM 42.8 °F 41.1 °F 37.4 °F 81% 29.86 in 10.0 mi ESE 3.5 mph - N/A   Clear
2:15 AM 44.6 °F 42.2 °F 37.4 °F 76% 29.86 in 10.0 mi ESE 4.6 mph - N/A   Clear
2:35 AM 44.6 °F 42.2 °F 39.2 °F 81% 29.86 in 10.0 mi ESE 4.6 mph - N/A   Clear
2:55 AM 44.6 °F - 37.4 °F 76% 29.86 in 10.0 mi Calm Calm - N/A   Clear
3:15 AM 44.6 °F - 37.4 °F 76% 29.85 in 10.0 mi Calm Calm - N/A   Clear
3:35 AM 41.0 °F - 35.6 °F 81% 29.86 in 7.0 mi Calm Calm - N/A   Clear
3:55 AM 41.0 °F 39.0 °F 35.6 °F 81% 29.88 in 7.0 mi ENE 3.5 mph - N/A   Clear
4:15 AM 39.2 °F 37.0 °F 35.6 °F 87% 29.89 in 7.0 mi ENE 3.5 mph - N/A   Clear
4:35 AM 39.2 °F - 35.6 °F 87% 29.90 in 7.0 mi Calm Calm - N/A   Clear
4:55 AM 39.2 °F - 35.6 °F 87% 29.91 in 5.0 mi Calm Calm - N/A   Clear
5:15 AM 37.4 °F - 35.6 °F 93% 29.91 in 5.0 mi Calm Calm - N/A   Clear
5:35 AM 37.4 °F - 35.6 °F 93% 29.92 in 4.0 mi Calm Calm - N/A   Clear
5:55 AM 37.4 °F - 35.6 °F 93% 29.91 in 5.0 mi Calm Calm - N/A   Clear
6:15 AM 39.2 °F - 35.6 °F 87% 29.91 in 5.0 mi Calm Calm - N/A   Clear
6:35 AM 39.2 °F - 35.6 °F 87% 29.91 in 5.0 mi Calm Calm - N/A   Clear
6:55 AM 39.2 °F - 35.6 °F 87% 29.91 in 5.0 mi Calm Calm - N/A   Clear
7:15 AM 42.8 °F 41.1 °F 39.2 °F 87% 29.90 in 10.0 mi ESE 3.5 mph - N/A   Clear
7:35 AM 46.4 °F 45.2 °F 41.0 °F 81% 29.90 in 10.0 mi SE 3.5 mph - N/A   Clear
7:55 AM 48.2 °F - 42.8 °F 82% 29.91 in 10.0 mi Calm Calm - N/A   Clear
8:15 AM 50.0 °F - 42.8 °F 76% 29.92 in 10.0 mi Calm Calm - N/A   Clear
8:35 AM 50.0 °F - 42.8 °F 76% 29.93 in 10.0 mi South 4.6 mph - N/A   Clear
8:55 AM 51.8 °F - 44.6 °F 76% 29.93 in 10.0 mi South 4.6 mph - N/A   Clear
9:15 AM 55.4 °F - 46.4 °F 72% 29.93 in 10.0 mi South 8.1 mph - N/A   Clear
9:35 AM 59.0 °F - 46.4 °F 63% 29.95 in 10.0 mi SSW 11.5 mph 17.3 mph N/A   Clear
9:55 AM 60.8 °F - 46.4 °F 59% 29.93 in 10.0 mi South 10.4 mph 17.3 mph N/A   Clear
10:15 AM 59.0 °F - 46.4 °F 63% 29.93 in 10.0 mi South 10.4 mph 20.7 mph N/A   Clear
10:35 AM 62.6 °F - 48.2 °F 59% 29.92 in 10.0 mi South 13.8 mph 20.7 mph N/A   Scattered Clouds
10:55 AM 60.8 °F - 46.4 °F 59% 29.93 in 10.0 mi SSW 10.4 mph 20.7 mph N/A   Mostly Cloudy
11:15 AM 60.8 °F - 48.2 °F 63% 29.93 in 10.0 mi SSW 11.5 mph 17.3 mph N/A   Overcast
11:35 AM 62.6 °F - 48.2 °F 59% 29.94 in 10.0 mi SSW 15.0 mph 19.6 mph N/A   Overcast
11:55 AM 62.6 °F - 48.2 °F 59% 29.94 in 10.0 mi South 13.8 mph 19.6 mph N/A   Overcast
12:15 PM 64.4 °F - 50.0 °F 59% 29.94 in 10.0 mi South 11.5 mph 18.4 mph N/A   Scattered Clouds
12:35 PM 64.4 °F - 50.0 °F 59% 29.93 in 10.0 mi South 9.2 mph 16.1 mph N/A   Scattered Clouds
12:55 PM 64.4 °F - 50.0 °F 59% 29.93 in 10.0 mi South 10.4 mph 18.4 mph N/A   Scattered Clouds
1:15 PM 64.4 °F - 50.0 °F 59% 29.93 in 10.0 mi South 12.7 mph 17.3 mph N/A   Scattered Clouds
1:35 PM 64.4 °F - 50.0 °F 59% 29.92 in 10.0 mi SSW 9.2 mph 18.4 mph N/A   Mostly Cloudy
1:55 PM 64.4 °F - 50.0 °F 59% 29.91 in 10.0 mi SSW 11.5 mph 17.3 mph N/A   Mostly Cloudy
2:15 PM 64.4 °F - 50.0 °F 59% 29.92 in 10.0 mi SSW 12.7 mph 21.9 mph N/A   Overcast
2:35 PM 64.4 °F - 50.0 °F 59% 29.93 in 10.0 mi SSW 13.8 mph 18.4 mph N/A   Overcast
2:55 PM 64.4 °F - 50.0 °F 59% 29.92 in 10.0 mi SSW 12.7 mph 18.4 mph N/A   Overcast
3:15 PM 64.4 °F - 51.8 °F 64% 29.92 in 10.0 mi SSW 10.4 mph 20.7 mph N/A   Overcast
3:35 PM 64.4 °F - 51.8 °F 64% 29.91 in 10.0 mi South 12.7 mph 19.6 mph N/A   Overcast
3:55 PM 64.4 °F - 51.8 °F 64% 29.90 in 10.0 mi South 9.2 mph 17.3 mph N/A   Overcast
4:15 PM 66.2 °F - 51.8 °F 60% 29.89 in 10.0 mi South 9.2 mph 18.4 mph N/A   Mostly Cloudy
4:35 PM 66.2 °F - 51.8 °F 60% 29.88 in 10.0 mi South 12.7 mph 25.3 mph N/A   Scattered Clouds
4:55 PM 64.4 °F - 51.8 °F 64% 29.88 in 10.0 mi South 15.0 mph 23.0 mph N/A   Clear
5:15 PM 64.4 °F - 51.8 °F 64% 29.89 in 10.0 mi South 17.3 mph 25.3 mph N/A   Clear
5:35 PM 64.4 °F - 50.0 °F 59% 29.89 in 10.0 mi SSW 11.5 mph 20.7 mph N/A   Scattered Clouds
5:55 PM 64.4 °F - 51.8 °F 64% 29.88 in 10.0 mi SSW 8.1 mph 16.1 mph N/A   Scattered Clouds
6:15 PM 66.2 °F - 51.8 °F 60% 29.89 in 10.0 mi SSW 11.5 mph 17.3 mph N/A   Clear
6:35 PM 64.4 °F - 51.8 °F 64% 29.90 in 10.0 mi SSW 6.9 mph 11.5 mph N/A   Clear
6:55 PM 64.4 °F - 51.8 °F 64% 29.90 in 10.0 mi SSW 6.9 mph - N/A   Scattered Clouds
7:15 PM 64.4 °F - 51.8 °F 64% 29.90 in 10.0 mi SSW 9.2 mph - N/A   Mostly Cloudy
7:35 PM 64.4 °F - 51.8 °F 64% 29.91 in 10.0 mi SW 8.1 mph - N/A   Mostly Cloudy
7:55 PM 62.6 °F - 51.8 °F 68% 29.91 in 10.0 mi SSW 3.5 mph - N/A   Scattered Clouds
8:15 PM 62.6 °F - 51.8 °F 68% 29.91 in 10.0 mi Calm Calm - N/A   Scattered Clouds
8:35 PM 60.8 °F - 51.8 °F 72% 29.91 in 10.0 mi Calm Calm - N/A   Scattered Clouds
8:55 PM 60.8 °F - 51.8 °F 72% 29.93 in 10.0 mi Calm Calm - N/A   Overcast
9:15 PM 60.8 °F - 51.8 °F 72% 29.93 in 10.0 mi Calm Calm - N/A   Overcast
9:35 PM 59.0 °F - 51.8 °F 77% 29.93 in 10.0 mi Calm Calm - N/A   Overcast
9:55 PM 59.0 °F - 51.8 °F 77% 29.93 in 10.0 mi Calm Calm - N/A   Overcast
10:35 PM 59.0 °F - 51.8 °F 77% 29.93 in 10.0 mi Calm Calm - N/A   Overcast
10:55 PM 59.0 °F - 51.8 °F 77% 29.92 in 10.0 mi SE 3.5 mph - N/A   Overcast
11:15 PM 60.8 °F - 51.8 °F 72% 29.90 in 10.0 mi SE 5.8 mph - N/A   Overcast
11:35 PM 60.8 °F - 51.8 °F 72% 29.92 in 10.0 mi South 6.9 mph - N/A   Overcast
11:55 PM 60.8 °F - 51.8 °F 72% 29.90 in 10.0 mi SSE 4.6 mph - N/A   Overcast